Weather History for Kirksville, MO

Change the Weather History Date:

Tuesday, March 12, 2013

  Actual Average Record
Temperature  
Mean Temperature 29 °F 39 °F  
Max Temperature 38 °F 49 °F 77 °F (1990)
Min Temperature 19 °F 29 °F -5 °F (1948)
Degree Days  
Heating Degree Days 36 26  
Month to date heating degree days 432 339  
Since 1 July heating degree days 4812 4872  
Cooling Degree Days 0 0  
Month to date cooling degree days 0 0  
Year to date cooling degree days 0 0  
Moisture  
Dew Point 22 °F    
Average Humidity 76    
Maximum Humidity 92    
Minimum Humidity 59    
Precipitation  
Precipitation T in 0.09 in 1.25 in (1939)
Month to date precipitation 2.63 0.99  
Year to date precipitation 8.08 3.79  
Sea Level Pressure  
Sea Level Pressure 30.15 in    
Wind  
Wind Speed 12 mph (WNW)    
Max Wind Speed 26 mph    
Max Gust Speed 33 mph    
Visibility 8 miles    
Events Snow    
T = Trace of Precipitation, MM = Missing Value Source: NWS Daily Summary

Daily Weather History Graph

Daily Weather History Graph

Search for Another Location

Airport:

Trip Planner

Search our weather history database for the weather conditions in past years. The results will help you decide how hot, cold, wet, or windy it might be!

Date:

Astronomy

Mar. 12, 2013 Rise Set
Actual Time 7:26 AM CDT 7:14 PM CDT
Civil Twilight 6:59 AM CDT 7:41 PM CDT
Nautical Twilight 6:27 AM CDT 8:12 PM CDT
Astronomical Twilight 5:55 AM CDT 8:44 PM CDT
Moon 7:32 AM CDT (3/12) 8:29 PM CDT (3/12)
Length of Visible Light 12h 42m
Length of Day
11h 48m
New Moon, 1% of the Moon is Illuminated
Mar 12
New Moon
Mar 19
First Quarter
Mar 27
Full
Apr 2
Last Quarter
Apr 10
New

Hourly Weather History & Observations

Time (CDT) Temp. Windchill Dew Point Humidity Pressure Visibility Wind Dir Wind Speed Gust Speed Precip Events Conditions
12:55 AM 24.8 °F 17.9 °F 19.4 °F 80% 29.98 in 10.0 mi NW 5.8 mph - N/A   Clear
1:55 AM 24.1 °F 19.7 °F 19.0 °F 81% 30.04 in 10.0 mi WNW 3.5 mph - N/A   Clear
2:55 AM 19.0 °F 12.3 °F 17.1 °F 92% 30.05 in 9.0 mi West 4.6 mph - N/A   Clear
3:55 AM 21.9 °F 15.7 °F 18.0 °F 85% 30.05 in 10.0 mi SW 4.6 mph - N/A   Clear
4:55 AM 19.9 °F 13.4 °F 17.1 °F 89% 30.05 in 10.0 mi WSW 4.6 mph - N/A   Clear
5:55 AM 21.9 °F - 19.0 °F 89% 30.06 in 10.0 mi Calm Calm - N/A   Clear
6:55 AM 21.0 °F 13.4 °F 18.0 °F 88% 30.09 in 10.0 mi West 5.8 mph - N/A   Clear
7:55 AM 21.9 °F 14.5 °F 19.0 °F 89% 30.09 in 10.0 mi West 5.8 mph - N/A   Clear
8:55 AM 27.0 °F 19.5 °F 21.9 °F 81% 30.11 in 10.0 mi West 6.9 mph - N/A   Clear
9:55 AM 30.9 °F 22.8 °F 24.1 °F 76% 30.12 in 10.0 mi West 9.2 mph - N/A   Clear
10:55 AM 35.1 °F 27.4 °F 25.0 °F 67% 30.12 in 10.0 mi WSW 10.4 mph 16.1 mph N/A   Overcast
11:55 AM 36.0 °F 26.3 °F 26.1 °F 67% 30.14 in 10.0 mi West 16.1 mph 23.0 mph N/A   Mostly Cloudy
12:55 PM 36.0 °F 27.5 °F 26.1 °F 67% 30.14 in 10.0 mi West 12.7 mph 23.0 mph N/A   Overcast
1:55 PM 37.0 °F 27.0 °F 24.1 °F 59% 30.14 in 10.0 mi WNW 18.4 mph 25.3 mph N/A   Overcast
2:55 PM 35.1 °F 23.3 °F 23.0 °F 61% 30.16 in 10.0 mi WNW 23.0 mph 32.2 mph N/A   Overcast
3:55 PM 35.1 °F 25.5 °F 24.1 °F 64% 30.16 in 10.0 mi West 15.0 mph 23.0 mph N/A   Overcast
4:55 PM 35.1 °F 24.8 °F 24.1 °F 64% 30.17 in 9.0 mi WNW 17.3 mph 28.8 mph N/A   Overcast
5:55 PM 32.0 °F 21.6 °F 25.0 °F 75% 30.20 in 3.0 mi WNW 15.0 mph 26.5 mph 0.00 in Snow Light Snow
6:55 PM 30.9 °F 18.7 °F 24.1 °F 76% 30.22 in 2.5 mi NW 19.6 mph 28.8 mph 0.00 in Snow Light Snow
7:02 PM 30.2 °F 19.3 °F 24.8 °F 80% 30.17 in 1.0 mi WNW 15.0 mph 28.8 mph 0.00 in Snow Light Snow
7:08 PM 30.2 °F 19.3 °F 24.8 °F 80% 30.17 in 3.0 mi WNW 15.0 mph 24.2 mph 0.00 in Snow Light Snow
7:31 PM 30.2 °F 20.2 °F 24.8 °F 80% 30.18 in 2.5 mi WNW 12.7 mph - 0.00 in Snow Light Snow
7:39 PM 30.2 °F 19.3 °F 23.0 °F 75% 30.18 in 9.0 mi WNW 15.0 mph 23.0 mph 0.00 in   Overcast
7:55 PM 30.9 °F 19.8 °F 21.9 °F 69% 30.23 in 10.0 mi WNW 16.1 mph 23.0 mph 0.00 in   Overcast
8:55 PM 30.0 °F 18.3 °F 21.0 °F 69% 30.24 in 10.0 mi WNW 17.3 mph 24.2 mph N/A   Overcast
9:55 PM 28.9 °F 17.7 °F 19.9 °F 69% 30.25 in 10.0 mi WNW 15.0 mph 24.2 mph N/A   Mostly Cloudy
10:45 PM 26.6 °F 13.1 °F 21.2 °F 80% 30.24 in 2.5 mi NNW 19.6 mph 33.4 mph 0.00 in Snow Light Snow
10:55 PM 27.0 °F 15.2 °F 19.9 °F 75% 30.28 in 5.0 mi NW 15.0 mph 29.9 mph 0.00 in Snow Light Snow
11:02 PM 26.6 °F 13.4 °F 19.4 °F 74% 30.24 in 8.0 mi NW 18.4 mph 25.3 mph 0.00 in Snow Light Snow
11:55 PM 27.0 °F 15.2 °F 19.0 °F 72% 30.29 in 10.0 mi NW 15.0 mph 24.2 mph 0.00 in   Mostly Cloudy